• In Österreich
  • Länderverzeichnis
  • Für 7 Tage
  • Wassertemperatur
  • Satellitenkarten
  • Wetterkarte
  • News
  • Widgets
  • user-avatar
    Anmelden

    Stündliche Wetter Pestryakovo

    Heute, 23 Juli, Montag

    Zeit Temperatur Niederschläge Wind Luftdruck Luftfeuchtigkeit
    00:00 +20°C° 0 mm 1 m/S 748 mmHg 97%
    01:00 +20°C° 0 mm 1 m/S 748 mmHg 98%
    02:00 +19°C° 0 mm 1 m/S 748 mmHg 98%
    03:00 +19°C° 0 mm 1 m/S 749 mmHg 98%
    04:00 +19°C° 0 mm 1 m/S 749 mmHg 98%
    05:00 +19°C° 0 mm 1 m/S 749 mmHg 98%
    06:00 +21°C° 0,1 mm 1 m/S 749 mmHg 94%
    07:00 +21°C° 0,1 mm 2 m/S 749 mmHg 91%
    08:00 +23°C° 0,1 mm 2 m/S 749 mmHg 87%
    09:00 +24°C° 0,8 mm 2 m/S 749 mmHg 83%
    10:00 +25°C° 0,8 mm 2 m/S 749 mmHg 80%
    11:00 +26°C° 0,8 mm 3 m/S 749 mmHg 76%
    12:00 +26°C° 0,3 mm 3 m/S 749 mmHg 73%
    13:00 +27°C° 0,3 mm 2 m/S 749 mmHg 70%
    14:00 +27°C° 0,3 mm 2 m/S 749 mmHg 67%
    15:00 +27°C° 0,3 mm 2 m/S 749 mmHg 68%
    16:00 +26°C° 0,3 mm 2 m/S 749 mmHg 70%
    17:00 +26°C° 0,3 mm 2 m/S 749 mmHg 72%
    18:00 +24°C° 0 mm 2 m/S 749 mmHg 77%
    19:00 +23°C° 0 mm 2 m/S 749 mmHg 83%
    20:00 +21°C° 0 mm 2 m/S 749 mmHg 89%
    21:00 +20°C° 0 mm 2 m/S 750 mmHg 92%
    22:00 +19°C° 0 mm 2 m/S 750 mmHg 94%
    23:00 +18°C° 0 mm 2 m/S 750 mmHg 97%

    Morgen, 24 Juli, Dienstag

    Zeit Temperatur Niederschläge Wind Luftdruck Luftfeuchtigkeit
    00:00 +19°C° 0 mm 1 m/S 750 mmHg 97%
    01:00 +18°C° 0 mm 1 m/S 750 mmHg 97%
    02:00 +18°C° 0 mm 1 m/S 750 mmHg 98%
    03:00 +17°C° 0 mm 2 m/S 750 mmHg 97%
    04:00 +17°C° 0 mm 2 m/S 750 mmHg 97%
    05:00 +17°C° 0 mm 2 m/S 751 mmHg 96%
    06:00 +18°C° 0 mm 2 m/S 751 mmHg 90%
    07:00 +20°C° 0 mm 2 m/S 751 mmHg 84%
    08:00 +21°C° 0 mm 2 m/S 751 mmHg 78%
    09:00 +23°C° 0,1 mm 2 m/S 751 mmHg 75%
    10:00 +24°C° 0,1 mm 2 m/S 751 mmHg 72%
    11:00 +25°C° 0,1 mm 2 m/S 751 mmHg 69%
    12:00 +26°C° 0,8 mm 2 m/S 751 mmHg 71%
    13:00 +26°C° 0,8 mm 2 m/S 750 mmHg 74%
    14:00 +26°C° 0,8 mm 3 m/S 750 mmHg 76%
    15:00 +26°C° 0,8 mm 2 m/S 750 mmHg 78%
    16:00 +25°C° 0,8 mm 2 m/S 750 mmHg 81%
    17:00 +25°C° 0,8 mm 2 m/S 750 mmHg 83%
    18:00 +24°C° 0,4 mm 2 m/S 751 mmHg 86%
    19:00 +23°C° 0,4 mm 2 m/S 751 mmHg 90%
    20:00 +21°C° 0,4 mm 2 m/S 751 mmHg 93%
    21:00 +20°C° 0,1 mm 2 m/S 751 mmHg 94%
    22:00 +20°C° 0,1 mm 2 m/S 751 mmHg 96%
    23:00 +20°C° 0,1 mm 1 m/S 751 mmHg 97%

    übermorgen, 25 Juli, Mittwoch

    Zeit Temperatur Niederschläge Wind Luftdruck Luftfeuchtigkeit
    00:00 +19°C° 0 mm 2 m/S 751 mmHg 97%
    01:00 +19°C° 0 mm 2 m/S 751 mmHg 97%
    02:00 +18°C° 0 mm 2 m/S 751 mmHg 98%
    03:00 +18°C° 0 mm 2 m/S 752 mmHg 98%
    04:00 +18°C° 0 mm 2 m/S 752 mmHg 98%
    05:00 +19°C° 0 mm 1 m/S 752 mmHg 98%
    06:00 +20°C° 0 mm 2 m/S 752 mmHg 94%
    07:00 +21°C° 0 mm 2 m/S 752 mmHg 90%
    08:00 +24°C° 0 mm 2 m/S 752 mmHg 86%
    09:00 +25°C° 0 mm 2 m/S 752 mmHg 77%
    10:00 +27°C° 0 mm 2 m/S 752 mmHg 69%
    11:00 +29°C° 0 mm 2 m/S 752 mmHg 61%
    12:00 +29°C° 0,3 mm 2 m/S 752 mmHg 63%
    13:00 +29°C° 0,3 mm 2 m/S 752 mmHg 65%
    14:00 +29°C° 0,3 mm 3 m/S 752 mmHg 67%
    15:00 +29°C° 0,5 mm 3 m/S 752 mmHg 70%
    16:00 +28°C° 0,5 mm 2 m/S 752 mmHg 73%
    17:00 +28°C° 0,5 mm 2 m/S 752 mmHg 77%
    18:00 +26°C° 0 mm 2 m/S 752 mmHg 81%
    19:00 +25°C° 0 mm 2 m/S 752 mmHg 85%
    20:00 +23°C° 0 mm 2 m/S 753 mmHg 89%
    21:00 +23°C° 0 mm 2 m/S 753 mmHg 90%
    22:00 +21°C° 0 mm 2 m/S 753 mmHg 90%
    23:00 +20°C° 0 mm 2 m/S 753 mmHg 91%

    26 Juli, Donnerstag

    Zeit Temperatur Niederschläge Wind Luftdruck Luftfeuchtigkeit
    00:00 +19°C° 0 mm 2 m/S 753 mmHg 91%
    01:00 +18°C° 0 mm 2 m/S 753 mmHg 92%
    02:00 +17°C° 0 mm 2 m/S 753 mmHg 92%
    03:00 +17°C° 0 mm 2 m/S 753 mmHg 91%
    04:00 +17°C° 0 mm 2 m/S 754 mmHg 89%
    05:00 +17°C° 0 mm 2 m/S 754 mmHg 88%
    06:00 +19°C° 0,1 mm 2 m/S 754 mmHg 82%
    07:00 +20°C° 0,1 mm 3 m/S 754 mmHg 77%
    08:00 +22°C° 0,1 mm 3 m/S 754 mmHg 72%
    09:00 +25°C° 0 mm 3 m/S 753 mmHg 67%
    10:00 +27°C° 0 mm 3 m/S 753 mmHg 61%
    11:00 +29°C° 0 mm 4 m/S 753 mmHg 56%
    12:00 +29°C° 0,2 mm 4 m/S 753 mmHg 55%
    13:00 +30°C° 0,2 mm 4 m/S 753 mmHg 54%
    14:00 +32°C° 0,2 mm 4 m/S 753 mmHg 53%
    15:00 +31°C° 0,2 mm 3 m/S 753 mmHg 55%
    16:00 +30°C° 0,2 mm 3 m/S 753 mmHg 57%
    17:00 +30°C° 0,2 mm 3 m/S 753 mmHg 59%
    18:00 +28°C° 0,4 mm 3 m/S 753 mmHg 67%
    19:00 +26°C° 0,4 mm 3 m/S 753 mmHg 76%
    20:00 +24°C° 0,4 mm 3 m/S 753 mmHg 85%
    21:00 +23°C° 0 mm 2 m/S 754 mmHg 87%
    22:00 +21°C° 0 mm 2 m/S 754 mmHg 88%
    23:00 +21°C° 0 mm 2 m/S 754 mmHg 90%

    27 Juli, Freitag

    Zeit Temperatur Niederschläge Wind Luftdruck Luftfeuchtigkeit
    00:00 +20°C° 0,2 mm 2 m/S 754 mmHg 91%
    01:00 +20°C° 0,2 mm 2 m/S 754 mmHg 93%
    02:00 +20°C° 0,2 mm 2 m/S 754 mmHg 94%
    03:00 +20°C° 0 mm 2 m/S 754 mmHg 94%
    04:00 +19°C° 0 mm 2 m/S 754 mmHg 95%
    05:00 +19°C° 0 mm 2 m/S 755 mmHg 96%
    06:00 +21°C° 0 mm 2 m/S 755 mmHg 92%
    07:00 +23°C° 0 mm 2 m/S 755 mmHg 87%
    08:00 +24°C° 0 mm 2 m/S 755 mmHg 83%
    09:00 +26°C° 0 mm 2 m/S 755 mmHg 75%
    10:00 +28°C° 0 mm 3 m/S 755 mmHg 67%
    11:00 +30°C° 0 mm 3 m/S 755 mmHg 60%
    12:00 +30°C° 0,4 mm 3 m/S 755 mmHg 57%
    13:00 +31°C° 0,4 mm 3 m/S 755 mmHg 55%
    14:00 +31°C° 0,4 mm 3 m/S 755 mmHg 53%
    15:00 +31°C° 0,3 mm 3 m/S 755 mmHg 56%
    16:00 +30°C° 0,3 mm 3 m/S 755 mmHg 59%
    17:00 +30°C° 0,3 mm 3 m/S 755 mmHg 61%
    18:00 +28°C° 0,4 mm 3 m/S 756 mmHg 68%
    19:00 +26°C° 0,4 mm 2 m/S 756 mmHg 75%
    20:00 +25°C° 0,4 mm 2 m/S 756 mmHg 81%
    21:00 +24°C° 0 mm 2 m/S 756 mmHg 83%
    22:00 +23°C° 0 mm 2 m/S 756 mmHg 84%
    23:00 +23°C° 0 mm 2 m/S 756 mmHg 85%

    28 Juli, Samstag

    Zeit Temperatur Niederschläge Wind Luftdruck Luftfeuchtigkeit
    00:00 +21°C° 0 mm 2 m/S 757 mmHg 86%
    01:00 +20°C° 0 mm 2 m/S 757 mmHg 87%
    02:00 +20°C° 0 mm 2 m/S 757 mmHg 88%
    03:00 +20°C° 0 mm 2 m/S 757 mmHg 89%
    04:00 +20°C° 0 mm 2 m/S 757 mmHg 89%
    05:00 +20°C° 0 mm 2 m/S 757 mmHg 90%
    06:00 +23°C° 0 mm 2 m/S 757 mmHg 83%
    07:00 +25°C° 0 mm 2 m/S 757 mmHg 77%
    08:00 +27°C° 0 mm 2 m/S 757 mmHg 70%
    09:00 +28°C° 0 mm 2 m/S 757 mmHg 62%
    10:00 +30°C° 0 mm 3 m/S 757 mmHg 54%
    11:00 +31°C° 0 mm 3 m/S 757 mmHg 47%
    12:00 +33°C° 0 mm 3 m/S 757 mmHg 46%
    13:00 +33°C° 0 mm 3 m/S 757 mmHg 45%
    14:00 +33°C° 0 mm 3 m/S 757 mmHg 44%
    15:00 +32°C° 0 mm 2 m/S 757 mmHg 48%
    16:00 +31°C° 0 mm 2 m/S 757 mmHg 52%
    17:00 +31°C° 0 mm 2 m/S 757 mmHg 56%
    18:00 +29°C° 0 mm 2 m/S 757 mmHg 62%
    19:00 +27°C° 0 mm 2 m/S 757 mmHg 68%
    20:00 +25°C° 0 mm 2 m/S 757 mmHg 75%
    21:00 +24°C° 0 mm 2 m/S 757 mmHg 76%
    22:00 +23°C° 0 mm 2 m/S 758 mmHg 77%
    23:00 +22°C° 0 mm 1 m/S 758 mmHg 79%
    Mehr zeigen